86P/Wild 3 (2015)

Japanese version
Home page
Updated on April 9, 2020

---------------------------------------------------------------------

* Profile

* Pictures

* Orbital Elements

Epoch 2015 Apr. 8.0 TT = JDT 2457120.5
T 2015 Apr. 3.31840 TT                                  MPCW
q   2.2635247            (2000.0)            P               Q
n   0.14406945     Peri.  179.13821     -0.31598933     +0.91404716
a   3.6037511      Node    72.40986     -0.87206105     -0.17423947
e   0.3718976      Incl.   15.47237     -0.37371147     -0.36627639
P   6.84
From 73 observations 1994 Feb. 10-2015 June 20, mean residual 0".7.
     Nongravitational parameters A1 = +0.72, A2 = +0.0624.

* Magnitudes Graph

        m1 = 13.0 + 5 log d + 15.0 log r

---------------------------------------------------------------------

The orbital elements are published on M.P.E.C. 2018-D91.
The magnitudes graphs are made with Comet for Windows.

---------------------------------------------------------------------

Copyright(C) Seiichi Yoshida (comet@aerith.net). All rights reserved.